| time (UTC) | temp F | wind direction | speed knots | gust knots | rain 1hr in | rain 24hr in | rain mn in | humidity % | barometer mb |
| 20260507201525 | 55 | 226 | 7.0 | 16.5 | 0.00 | 0.09 | 0.06 | 95 | 998.6 |
| 20260507201024 | 55 | 224 | 7.0 | 15.6 | 0.00 | 0.08 | 0.05 | 94 | 998.8 |
| 20260507200522 | 55 | 228 | 5.2 | 12.2 | 0.00 | 0.08 | 0.05 | 94 | 999.0 |
| 20260507200020 | 55 | 217 | 7.8 | 15.6 | 0.00 | 0.08 | 0.05 | 94 | 999.0 |
| 20260507195518 | 55 | 234 | 6.1 | 16.5 | 0.00 | 0.08 | 0.05 | 95 | 999.3 |
| 20260507195016 | 55 | 227 | 6.1 | 15.6 | 0.00 | 0.08 | 0.05 | 95 | 999.3 |
| 20260507194535 | 56 | 224 | 7.0 | 18.2 | 0.00 | 0.08 | 0.05 | 95 | 999.3 |
| 20260507194033 | 56 | 226 | 5.2 | 9.6 | 0.00 | 0.08 | 0.05 | 95 | 999.4 |
| 20260507193531 | 56 | 225 | 5.2 | 18.2 | 0.00 | 0.08 | 0.05 | 95 | 999.4 |
| 20260507193029 | 56 | 222 | 6.1 | 14.8 | 0.00 | 0.08 | 0.05 | 95 | 999.4 |
| 20260507192527 | 57 | 213 | 5.2 | 15.6 | 0.00 | 0.08 | 0.05 | 95 | 999.3 |
| 20260507192025 | 57 | 243 | 6.1 | 13.9 | 0.00 | 0.08 | 0.05 | 95 | 999.3 |
| 20260507191523 | 57 | 255 | 4.3 | 13.9 | 0.01 | 0.08 | 0.05 | 96 | 999.2 |
| 20260507191022 | 57 | 237 | 4.3 | 11.3 | 0.01 | 0.08 | 0.05 | 96 | 999.3 |
| 20260507190520 | 57 | 243 | 4.3 | 11.3 | 0.01 | 0.08 | 0.05 | 96 | 999.4 |
| 20260507190018 | 57 | 252 | 4.3 | 11.3 | 0.01 | 0.08 | 0.05 | 97 | 999.4 |
| 20260507185536 | 57 | 233 | 3.5 | 9.6 | 0.01 | 0.08 | 0.05 | 97 | 999.4 |
| 20260507185034 | 57 | 241 | 3.5 | 7.8 | 0.02 | 0.08 | 0.05 | 98 | 999.3 |
| 20260507184533 | 57 | 223 | 3.5 | 7.8 | 0.02 | 0.08 | 0.05 | 98 | 999.4 |
| 20260507184030 | 57 | 255 | 1.7 | 7.0 | 0.02 | 0.08 | 0.05 | 99 | 999.4 |
| 20260507183529 | 56 | 236 | 2.6 | 7.0 | 0.02 | 0.08 | 0.05 | 99 | 999.3 |
| 20260507183027 | 56 | 245 | 3.5 | 9.6 | 0.02 | 0.08 | 0.05 | 99 | 999.3 |
| 20260507182525 | 56 | 244 | 4.3 | 9.6 | 0.04 | 0.08 | 0.05 | 99 | 999.4 |
| 20260507182023 | 56 | 255 | 4.3 | 9.6 | 0.04 | 0.08 | 0.05 | 99 | 999.4 |
| 20260507181521 | 56 | 256 | 5.2 | 13.0 | 0.04 | 0.07 | 0.04 | 99 | 999.4 |
| 20260507181018 | 56 | 246 | 4.3 | 12.2 | 0.04 | 0.07 | 0.04 | 99 | 999.4 |
| 20260507180517 | 56 | 254 | 6.1 | 13.0 | 0.04 | 0.07 | 0.04 | 99 | 999.5 |
| 20260507180035 | 56 | 261 | 5.2 | 9.6 | 0.04 | 0.07 | 0.04 | 99 | 999.3 |
| 20260507175534 | 56 | 259 | 5.2 | 9.6 | 0.04 | 0.07 | 0.04 | 99 | 999.1 |
| 20260507175032 | 56 | 253 | 4.3 | 8.7 | 0.04 | 0.07 | 0.04 | 99 | 999.1 |
| 20260507174530 | 56 | 253 | 3.5 | 7.0 | 0.04 | 0.07 | 0.04 | 99 | 999.0 |
| 20260507174028 | 56 | 263 | 3.5 | 7.8 | 0.04 | 0.07 | 0.04 | 99 | 999.0 |
| 20260507173526 | 56 | 249 | 3.5 | 7.8 | 0.03 | 0.06 | 0.03 | 99 | 999.0 |
| 20260507173024 | 56 | 249 | 4.3 | 11.3 | 0.03 | 0.06 | 0.03 | 99 | 999.0 |
| 20260507172522 | 56 | 252 | 4.3 | 11.3 | 0.02 | 0.05 | 0.02 | 98 | 999.2 |
| 20260507172021 | 56 | 255 | 4.3 | 7.8 | 0.01 | 0.04 | 0.01 | 97 | 999.3 |
| 20260507171519 | 56 | 252 | 5.2 | 9.6 | 0.00 | 0.03 | 0.00 | 96 | 999.5 |
| 20260507171017 | 56 | 247 | 5.2 | 9.6 | 0.00 | 0.03 | 0.00 | 95 | 999.3 |
| 20260507170535 | 56 | 257 | 6.1 | 13.0 | 0.00 | 0.03 | 0.00 | 93 | 999.1 |
| 20260507170034 | 57 | 259 | 6.1 | 16.5 | 0.00 | 0.03 | 0.00 | 92 | 999.1 |
| 20260507165532 | 57 | 254 | 5.2 | 12.2 | 0.00 | 0.03 | 0.00 | 91 | 999.0 |
| 20260507165030 | 57 | 250 | 2.6 | 7.8 | 0.00 | 0.03 | 0.00 | 90 | 999.2 |
| 20260507164529 | 57 | 251 | 2.6 | 7.8 | 0.00 | 0.03 | 0.00 | 90 | 999.3 |
| 20260507164026 | 57 | 253 | 5.2 | 9.6 | 0.00 | 0.03 | 0.00 | 90 | 999.3 |
| 20260507163525 | 57 | 244 | 5.2 | 9.6 | 0.00 | 0.03 | 0.00 | 90 | 999.6 |
| 20260507163024 | 57 | 248 | 6.1 | 13.0 | 0.00 | 0.03 | 0.00 | 90 | 999.5 |
| 20260507162521 | 57 | 252 | 6.1 | 15.6 | 0.00 | 0.03 | 0.00 | 89 | 999.6 |
| 20260507162020 | 57 | 259 | 5.2 | 8.7 | 0.00 | 0.03 | 0.00 | 89 | 999.5 |
| 20260507161517 | 57 | 248 | 5.2 | 8.7 | 0.00 | 0.03 | 0.00 | 89 | 999.4 |
| 20260507161017 | 57 | 250 | 5.2 | 12.2 | 0.00 | 0.03 | 0.00 | 89 | 999.5 |
| 20260507160535 | 57 | 247 | 3.5 | 8.7 | 0.00 | 0.03 | 0.00 | 89 | 999.6 |
| 20260507160033 | 57 | 260 | 4.3 | 9.6 | 0.00 | 0.03 | 0.00 | 89 | 999.4 |
| 20260507155531 | 57 | 257 | 5.2 | 12.2 | 0.00 | 0.03 | 0.00 | 89 | 999.3 |
| 20260507155030 | 57 | 259 | 5.2 | 9.6 | 0.00 | 0.03 | 0.00 | 89 | 999.2 |
| 20260507154527 | 57 | 255 | 5.2 | 11.3 | 0.00 | 0.03 | 0.00 | 89 | 999.5 |
| 20260507154026 | 57 | 253 | 5.2 | 9.6 | 0.00 | 0.03 | 0.00 | 88 | 999.7 |
| 20260507153525 | 57 | 242 | 3.5 | 7.0 | 0.00 | 0.03 | 0.00 | 88 | 999.5 |
| 20260507153023 | 57 | 250 | 3.5 | 7.8 | 0.00 | 0.03 | 0.00 | 88 | 999.4 |
| 20260507152520 | 57 | 250 | 5.2 | 8.7 | 0.00 | 0.03 | 0.00 | 88 | 999.3 |
| 20260507152019 | 57 | 258 | 5.2 | 9.6 | 0.00 | 0.03 | 0.00 | 87 | 999.2 |
| 20260507151517 | 57 | 241 | 3.5 | 7.8 | 0.00 | 0.03 | 0.00 | 89 | 999.3 |
| 20260507151036 | 57 | 253 | 5.2 | 9.6 | 0.00 | 0.03 | 0.00 | 89 | 999.6 |
| 20260507150534 | 57 | 256 | 5.2 | 12.2 | 0.00 | 0.03 | 0.00 | 88 | 999.7 |
| 20260507150032 | 57 | 255 | 3.5 | 8.7 | 0.00 | 0.03 | 0.00 | 89 | 999.6 |
| 20260507145530 | 57 | 253 | 4.3 | 9.6 | 0.00 | 0.03 | 0.00 | 88 | 999.6 |
| 20260507145028 | 57 | 259 | 3.5 | 9.6 | 0.00 | 0.03 | 0.00 | 88 | 999.7 |
| 20260507144527 | 57 | 249 | 4.3 | 11.3 | 0.00 | 0.03 | 0.00 | 88 | 999.7 |
| 20260507144024 | 57 | 225 | 4.3 | 12.2 | 0.00 | 0.03 | 0.00 | 88 | 999.9 |
| 20260507143523 | 57 | 246 | 4.3 | 9.6 | 0.00 | 0.03 | 0.00 | 87 | 999.9 |
| 20260507143021 | 57 | 240 | 4.3 | 13.0 | 0.00 | 0.03 | 0.00 | 87 | 999.8 |
| 20260507142519 | 57 | 234 | 4.3 | 11.3 | 0.00 | 0.03 | 0.00 | 89 | 999.9 |
| 20260507142018 | 56 | 237 | 3.5 | 9.6 | 0.00 | 0.03 | 0.00 | 89 | 1000.1 |
| 20260507141517 | 56 | 247 | 4.3 | 13.9 | 0.00 | 0.03 | 0.00 | 90 | 999.9 |
| 20260507141035 | 55 | 244 | 6.1 | 16.5 | 0.00 | 0.03 | 0.00 | 90 | 999.8 |
| 20260507140533 | 55 | 253 | 5.2 | 12.2 | 0.00 | 0.03 | 0.00 | 90 | 999.7 |
| 20260507140031 | 55 | 257 | 5.2 | 11.3 | 0.00 | 0.03 | 0.00 | 90 | 999.7 |
| 20260507135529 | 55 | 259 | 6.1 | 13.0 | 0.00 | 0.03 | 0.00 | 89 | 999.7 |
| 20260507135027 | 55 | 254 | 5.2 | 14.8 | 0.00 | 0.03 | 0.00 | 89 | 999.7 |
| 20260507134526 | 55 | 249 | 4.3 | 13.0 | 0.00 | 0.03 | 0.00 | 89 | 999.4 |
| 20260507134023 | 55 | 256 | 5.2 | 12.2 | 0.00 | 0.03 | 0.00 | 89 | 999.1 |
| 20260507133523 | 55 | 247 | 6.1 | 13.0 | 0.00 | 0.03 | 0.00 | 89 | 998.9 |
| 20260507133021 | 55 | 256 | 4.3 | 11.3 | 0.00 | 0.03 | 0.00 | 89 | 999.0 |
| 20260507132518 | 55 | 239 | 6.1 | 13.0 | 0.00 | 0.03 | 0.00 | 90 | 998.9 |
| 20260507132017 | 54 | 255 | 7.8 | 16.5 | 0.00 | 0.03 | 0.00 | 91 | 998.9 |
| 20260507131536 | 54 | 237 | 4.3 | 11.3 | 0.00 | 0.03 | 0.00 | 92 | 999.0 |
| 20260507131034 | 53 | 260 | 4.3 | 13.9 | 0.00 | 0.03 | 0.00 | 92 | 998.9 |
| 20260507130532 | 53 | 259 | 6.1 | 13.0 | 0.00 | 0.03 | 0.00 | 92 | 998.8 |
| 20260507130030 | 53 | 264 | 7.8 | 14.8 | 0.00 | 0.03 | 0.00 | 92 | 999.1 |
| 20260507125528 | 53 | 247 | 7.0 | 15.6 | 0.00 | 0.03 | 0.00 | 92 | 999.1 |
| 20260507125026 | 53 | 257 | 7.8 | 15.6 | 0.00 | 0.03 | 0.00 | 92 | 999.1 |
| 20260507124524 | 54 | 252 | 7.8 | 20.0 | 0.00 | 0.03 | 0.00 | 91 | 999.3 |
| 20260507124022 | 54 | 253 | 7.0 | 15.6 | 0.00 | 0.03 | 0.00 | 91 | 999.5 |
| 20260507123520 | 54 | 255 | 7.8 | 13.9 | 0.00 | 0.03 | 0.00 | 91 | 999.6 |
| 20260507123018 | 54 | 256 | 5.2 | 11.3 | 0.00 | 0.03 | 0.00 | 91 | 999.8 |
| 20260507122516 | 54 | 254 | 4.3 | 9.6 | 0.00 | 0.03 | 0.00 | 91 | 999.7 |
| 20260507122035 | 55 | 256 | 7.8 | 13.9 | 0.00 | 0.03 | 0.00 | 91 | 999.9 |
| 20260507121534 | 55 | 250 | 7.8 | 14.8 | 0.00 | 0.03 | 0.00 | 91 | 1000.1 |
| 20260507121031 | 55 | 246 | 7.0 | 14.8 | 0.00 | 0.03 | 0.00 | 92 | 1000.4 |
| 20260507120530 | 55 | 240 | 7.0 | 16.5 | 0.00 | 0.03 | 0.00 | 93 | 1000.4 |
| 20260507120028 | 56 | 250 | 7.8 | 13.9 | 0.00 | 0.03 | 0.00 | 93 | 1000.5 |
| 20260507115526 | 56 | 256 | 6.1 | 20.0 | 0.00 | 0.03 | 0.00 | 94 | 1000.5 |
| 20260507115023 | 56 | 247 | 8.7 | 15.6 | 0.00 | 0.03 | 0.00 | 97 | 1000.4 |
| 20260507114522 | 56 | 264 | 6.1 | 11.3 | 0.00 | 0.03 | 0.00 | 99 | 1000.3 |
| 20260507114020 | 56 | 264 | 6.1 | 12.2 | 0.00 | 0.03 | 0.00 | 99 | 1000.0 |
| 20260507113518 | 56 | 246 | 6.1 | 11.3 | 0.00 | 0.03 | 0.00 | 99 | 999.6 |
| 20260507113036 | 56 | 259 | 6.1 | 13.9 | 0.00 | 0.03 | 0.00 | 99 | 999.8 |
| 20260507112534 | 56 | 249 | 3.5 | 7.8 | 0.00 | 0.03 | 0.00 | 99 | 999.8 |
| 20260507112032 | 55 | 252 | 2.6 | 7.8 | 0.00 | 0.03 | 0.00 | 99 | 999.7 |
| 20260507111530 | 55 | 259 | 3.5 | 11.3 | 0.00 | 0.03 | 0.00 | 99 | 999.6 |
| 20260507111028 | 55 | 245 | 3.5 | 8.7 | 0.00 | 0.03 | 0.00 | 99 | 999.4 |
| 20260507110526 | 55 | 246 | 3.5 | 8.7 | 0.00 | 0.03 | 0.00 | 99 | 999.5 |
| 20260507110023 | 55 | 245 | 2.6 | 7.0 | 0.00 | 0.03 | 0.00 | 99 | 999.5 |
| 20260507105522 | 55 | 233 | 2.6 | 7.0 | 0.00 | 0.03 | 0.00 | 99 | 999.8 |
| 20260507105021 | 55 | 250 | 3.5 | 8.7 | 0.00 | 0.03 | 0.00 | 99 | 999.9 |
| 20260507104518 | 55 | 249 | 2.6 | 7.0 | 0.00 | 0.03 | 0.00 | 99 | 1000.0 |
| 20260507104016 | 55 | 255 | 2.6 | 7.0 | 0.00 | 0.03 | 0.00 | 99 | 1000.0 |
| 20260507103535 | 55 | 233 | 2.6 | 6.1 | 0.00 | 0.03 | 0.00 | 99 | 1000.1 |
| 20260507103033 | 55 | 237 | 2.6 | 7.0 | 0.00 | 0.03 | 0.00 | 99 | 1000.0 |
| 20260507102530 | 55 | 255 | 3.5 | 7.8 | 0.00 | 0.03 | 0.00 | 99 | 1000.1 |
| 20260507102028 | 55 | 247 | 3.5 | 7.8 | 0.00 | 0.03 | 0.00 | 99 | 1000.2 |
| 20260507101527 | 54 | 253 | 3.5 | 7.8 | 0.00 | 0.03 | 0.00 | 99 | 1000.4 |
| 20260507101025 | 54 | 253 | 3.5 | 7.8 | 0.00 | 0.03 | 0.00 | 99 | 1000.6 |
| 20260507100523 | 54 | 241 | 2.6 | 7.0 | 0.00 | 0.03 | 0.00 | 99 | 1000.6 |
| 20260507100021 | 54 | 235 | 2.6 | 7.0 | 0.00 | 0.03 | 0.00 | 99 | 1000.7 |
| 20260507095520 | 54 | 231 | 2.6 | 7.8 | 0.00 | 0.03 | 0.00 | 99 | 1000.7 |
| 20260507095018 | 54 | 232 | 2.6 | 7.0 | 0.00 | 0.03 | 0.00 | 99 | 1000.6 |
| 20260507094516 | 54 | 242 | 3.5 | 6.1 | 0.00 | 0.03 | 0.00 | 99 | 1000.9 |
| 20260507094035 | 54 | 245 | 2.6 | 7.0 | 0.00 | 0.03 | 0.00 | 98 | 1000.8 |
| 20260507093533 | 54 | 240 | 2.6 | 6.1 | 0.00 | 0.03 | 0.00 | 98 | 1000.7 |
| 20260507093031 | 55 | 239 | 3.5 | 7.0 | 0.00 | 0.03 | 0.00 | 98 | 1000.7 |
| 20260507092529 | 55 | 231 | 2.6 | 6.1 | 0.00 | 0.03 | 0.00 | 98 | 1000.8 |
| 20260507092027 | 54 | 254 | 2.6 | 7.8 | 0.00 | 0.03 | 0.00 | 98 | 1000.8 |
| 20260507091525 | 54 | 253 | 3.5 | 7.0 | 0.00 | 0.03 | 0.00 | 98 | 1000.8 |
| 20260507091023 | 54 | 255 | 4.3 | 8.7 | 0.00 | 0.03 | 0.00 | 98 | 1001.0 |
| 20260507090522 | 54 | 248 | 4.3 | 8.7 | 0.00 | 0.03 | 0.00 | 98 | 1001.1 |
| 20260507090020 | 54 | 248 | 4.3 | 8.7 | 0.00 | 0.03 | 0.00 | 98 | 1001.4 |
| 20260507085519 | 54 | 245 | 3.5 | 8.7 | 0.00 | 0.03 | 0.00 | 98 | 1001.5 |
| 20260507085016 | 54 | 246 | 4.3 | 8.7 | 0.00 | 0.03 | 0.00 | 98 | 1001.3 |
| 20260507084535 | 54 | 254 | 5.2 | 8.7 | 0.00 | 0.03 | 0.00 | 99 | 1001.4 |
| 20260507084033 | 54 | 254 | 5.2 | 11.3 | 0.00 | 0.03 | 0.00 | 99 | 1001.2 |
| 20260507083531 | 54 | 234 | 3.5 | 8.7 | 0.00 | 0.03 | 0.00 | 99 | 1001.0 |
| 20260507083030 | 54 | 244 | 3.5 | 7.8 | 0.00 | 0.03 | 0.00 | 99 | 1001.0 |
| 20260507082528 | 54 | 256 | 5.2 | 11.3 | 0.00 | 0.03 | 0.00 | 99 | 1000.8 |
| 20260507082026 | 54 | 259 | 6.1 | 12.2 | 0.00 | 0.03 | 0.00 | 99 | 1000.8 |
| 20260507081524 | 54 | 258 | 6.1 | 9.6 | 0.00 | 0.03 | 0.00 | 99 | 1000.8 |
| 20260507081023 | 54 | 258 | 5.2 | 11.3 | 0.00 | 0.03 | 0.00 | 98 | 1000.6 |
| 20260507080520 | 54 | 254 | 5.2 | 8.7 | 0.00 | 0.03 | 0.00 | 98 | 1000.6 |
| 20260507080019 | 54 | 248 | 3.5 | 7.8 | 0.00 | 0.03 | 0.00 | 99 | 1000.7 |
| 20260507075517 | 54 | 242 | 3.5 | 7.8 | 0.00 | 0.03 | 0.00 | 99 | 1000.5 |
| 20260507075036 | 54 | 255 | 3.5 | 6.1 | 0.00 | 0.03 | 0.00 | 99 | 1000.7 |
| 20260507074534 | 54 | 259 | 3.5 | 7.0 | 0.00 | 0.03 | 0.00 | 99 | 1000.5 |
| 20260507074032 | 54 | 250 | 3.5 | 7.0 | 0.00 | 0.03 | 0.00 | 99 | 1000.4 |
| 20260507073530 | 54 | 249 | 4.3 | 7.8 | 0.00 | 0.03 | 0.00 | 99 | 1000.2 |
| 20260507073028 | 54 | 244 | 3.5 | 7.0 | 0.00 | 0.03 | 0.00 | 99 | 1000.3 |
| 20260507072527 | 54 | 248 | 2.6 | 5.2 | 0.00 | 0.03 | 0.00 | 99 | 1000.5 |
| 20260507072025 | 54 | 251 | 3.5 | 6.1 | 0.00 | 0.03 | 0.00 | 99 | 1000.8 |
| 20260507071528 | 54 | 248 | 2.6 | 7.0 | 0.00 | 0.03 | 0.00 | 99 | 1001.0 |
| 20260507071021 | 54 | 252 | 3.5 | 6.1 | 0.00 | 0.03 | 0.00 | 99 | 1001.3 |
| 20260507070519 | 54 | 248 | 3.5 | 6.1 | 0.00 | 0.03 | 0.00 | 99 | 1001.4 |
| 20260507070018 | 54 | 251 | 2.6 | 7.0 | 0.00 | 0.03 | 0.00 | 99 | 1001.4 |
| 20260507065516 | 54 | 250 | 4.3 | 8.7 | 0.00 | 0.03 | 0.00 | 99 | 1001.4 |
| 20260507065034 | 54 | 249 | 4.3 | 7.8 | 0.00 | 0.03 | 0.00 | 99 | 1001.2 |
| 20260507064533 | 54 | 259 | 3.5 | 7.0 | 0.00 | 0.03 | 0.00 | 99 | 1001.3 |
| 20260507064030 | 54 | 257 | 3.5 | 6.1 | 0.00 | 0.03 | 0.00 | 99 | 1001.1 |
| 20260507063529 | 54 | 252 | 1.7 | 5.2 | 0.00 | 0.03 | 0.00 | 99 | 1001.4 |
| 20260507063027 | 54 | 274 | 0.9 | 5.2 | 0.00 | 0.03 | 0.00 | 99 | 1001.7 |
| 20260507062525 | 54 | 271 | 1.7 | 2.6 | 0.00 | 0.03 | 0.00 | 99 | 1001.7 |
| 20260507062024 | 54 | 290 | 0.9 | 1.7 | 0.00 | 0.03 | 0.00 | 99 | 1001.7 |
| 20260507061521 | 54 | 264 | 0.0 | 0.9 | 0.00 | 0.03 | 0.00 | 99 | 1001.5 |
| 20260507061020 | 54 | 269 | 0.0 | 1.7 | 0.00 | 0.03 | 0.00 | 99 | 1001.4 |
| 20260507060518 | 54 | 269 | 0.0 | 2.6 | 0.00 | 0.03 | 0.00 | 99 | 1001.4 |
| 20260507060016 | 54 | 0.0 | 0.0 | 0.00 | 0.03 | 0.00 | 99 | 1001.4 | |
| 20260507055534 | 54 | 0.0 | 0.0 | 0.00 | 0.03 | 0.00 | 99 | 1001.3 | |
| 20260507055033 | 54 | 274 | 0.9 | 3.5 | 0.00 | 0.03 | 0.00 | 99 | 1001.1 |
| 20260507054531 | 54 | 264 | 0.9 | 3.5 | 0.00 | 0.03 | 0.00 | 99 | 1000.9 |
| 20260507054029 | 54 | 270 | 0.9 | 3.5 | 0.00 | 0.03 | 0.00 | 99 | 1000.6 |
| 20260507053527 | 54 | 266 | 0.0 | 2.6 | 0.00 | 0.03 | 0.00 | 99 | 1000.1 |
| 20260507053026 | 55 | 256 | 0.0 | 1.7 | 0.00 | 0.03 | 0.00 | 99 | 999.7 |
| 20260507052524 | 55 | 219 | 0.0 | 0.9 | 0.00 | 0.03 | 0.00 | 99 | 999.8 |
| 20260507052022 | 55 | 219 | 0.0 | 3.5 | 0.00 | 0.03 | 0.00 | 99 | 999.8 |
| 20260507051521 | 55 | 213 | 0.0 | 2.6 | 0.00 | 0.03 | 0.00 | 99 | 999.8 |
| 20260507051018 | 55 | 219 | 0.9 | 5.2 | 0.00 | 0.03 | 0.00 | 99 | 999.6 |
| 20260507050517 | 55 | 222 | 1.7 | 3.5 | 0.00 | 0.03 | 0.00 | 99 | 999.9 |
| 20260507050035 | 55 | 228 | 1.7 | 2.6 | 0.00 | 0.03 | 0.00 | 99 | 1000.0 |
| 20260507045534 | 55 | 217 | 1.7 | 6.1 | 0.00 | 0.03 | 0.00 | 99 | 1000.4 |
| 20260507045031 | 55 | 231 | 0.9 | 3.5 | 0.00 | 0.03 | 0.00 | 98 | 1000.8 |
| 20260507044530 | 56 | 251 | 0.9 | 5.2 | 0.00 | 0.03 | 0.00 | 98 | 1001.1 |
| 20260507044028 | 56 | 243 | 0.0 | 2.6 | 0.00 | 0.03 | 0.00 | 98 | 1001.1 |
| 20260507043526 | 56 | 236 | 0.9 | 5.2 | 0.00 | 0.03 | 0.00 | 98 | 1000.6 |
| 20260507043024 | 56 | 257 | 0.9 | 2.6 | 0.00 | 0.03 | 0.00 | 98 | 1000.5 |
| 20260507042523 | 56 | 243 | 0.9 | 3.5 | 0.00 | 0.03 | 0.00 | 98 | 1000.5 |
| 20260507042021 | 56 | 243 | 1.7 | 5.2 | 0.00 | 0.03 | 0.00 | 98 | 1000.4 |
| 20260507041519 | 56 | 229 | 2.6 | 7.0 | 0.00 | 0.03 | 0.00 | 98 | 1000.6 |
| 20260507041018 | 56 | 236 | 2.6 | 7.8 | 0.00 | 0.03 | 0.00 | 98 | 1000.6 |
| 20260507040536 | 56 | 212 | 6.1 | 13.9 | 0.00 | 0.03 | 0.00 | 98 | 1000.8 |
| 20260507040034 | 56 | 220 | 5.2 | 12.2 | 0.00 | 0.03 | 0.00 | 99 | 1000.9 |
| 20260507035532 | 56 | 240 | 4.3 | 12.2 | 0.00 | 0.03 | 0.00 | 99 | 1001.1 |
| 20260507035031 | 56 | 236 | 4.3 | 9.6 | 0.00 | 0.03 | 0.00 | 99 | 1001.0 |
| 20260507034529 | 56 | 242 | 4.3 | 8.7 | 0.00 | 0.03 | 0.00 | 98 | 1001.2 |
| 20260507034027 | 56 | 226 | 4.3 | 9.6 | 0.00 | 0.03 | 0.00 | 98 | 1001.4 |
| 20260507033525 | 56 | 242 | 3.5 | 11.3 | 0.00 | 0.03 | 0.00 | 98 | 1001.5 |
| 20260507033024 | 56 | 243 | 4.3 | 8.7 | 0.00 | 0.03 | 0.00 | 97 | 1001.8 |
| 20260507032522 | 56 | 241 | 4.3 | 13.0 | 0.00 | 0.03 | 0.00 | 97 | 1001.5 |
| 20260507032020 | 57 | 244 | 5.2 | 11.3 | 0.00 | 0.03 | 0.00 | 97 | 1001.2 |
| 20260507031518 | 57 | 233 | 6.1 | 13.0 | 0.00 | 0.03 | 0.00 | 96 | 1001.3 |
| 20260507031016 | 57 | 242 | 5.2 | 13.0 | 0.00 | 0.03 | 0.00 | 96 | 1001.5 |
| 20260507030534 | 57 | 244 | 3.5 | 8.7 | 0.00 | 0.03 | 0.00 | 96 | 1001.1 |
| 20260507030032 | 57 | 256 | 3.5 | 11.3 | 0.00 | 0.03 | 0.03 | 96 | 1001.2 |
| 20260507025531 | 57 | 253 | 7.8 | 13.9 | 0.00 | 0.03 | 0.03 | 95 | 1000.8 |
| 20260507025029 | 57 | 255 | 6.1 | 11.3 | 0.00 | 0.03 | 0.03 | 95 | 1000.4 |
| 20260507024527 | 57 | 246 | 3.5 | 8.7 | 0.00 | 0.03 | 0.03 | 94 | 1000.0 |
| 20260507024025 | 57 | 242 | 2.6 | 7.0 | 0.00 | 0.03 | 0.03 | 94 | 999.8 |
| 20260507023524 | 58 | 225 | 1.7 | 5.2 | 0.00 | 0.03 | 0.03 | 94 | 999.5 |
| 20260507023021 | 58 | 204 | 1.7 | 6.1 | 0.00 | 0.03 | 0.03 | 94 | 999.4 |
| 20260507022519 | 58 | 195 | 0.9 | 3.5 | 0.00 | 0.03 | 0.03 | 93 | 999.3 |
| 20260507022019 | 58 | 197 | 0.9 | 3.5 | 0.00 | 0.03 | 0.03 | 93 | 999.3 |
| 20260507021517 | 58 | 209 | 0.9 | 3.5 | 0.00 | 0.03 | 0.03 | 92 | 999.2 |
| 20260507021034 | 58 | 217 | 0.9 | 3.5 | 0.00 | 0.03 | 0.03 | 92 | 999.1 |
| 20260507020533 | 58 | 201 | 0.9 | 2.6 | 0.00 | 0.03 | 0.03 | 92 | 999.1 |
| 20260507020033 | 59 | 195 | 1.7 | 6.1 | 0.00 | 0.03 | 0.03 | 92 | 999.2 |
| 20260507015529 | 59 | 188 | 1.7 | 6.1 | 0.00 | 0.03 | 0.03 | 92 | 999.3 |
| 20260507015027 | 59 | 191 | 2.6 | 7.0 | 0.00 | 0.03 | 0.03 | 92 | 999.3 |
| 20260507014526 | 59 | 174 | 1.7 | 7.8 | 0.00 | 0.03 | 0.03 | 92 | 999.3 |
| 20260507014024 | 59 | 223 | 2.6 | 7.8 | 0.00 | 0.03 | 0.03 | 91 | 999.2 |
| 20260507013522 | 59 | 205 | 2.6 | 7.0 | 0.00 | 0.03 | 0.03 | 91 | 998.8 |
| 20260507012518 | 59 | 202 | 3.5 | 8.7 | 0.00 | 0.03 | 0.03 | 90 | 998.7 |
| 20260507012017 | 59 | 183 | 3.5 | 8.7 | 0.00 | 0.03 | 0.03 | 90 | 999.0 |
| 20260507011535 | 59 | 185 | 2.6 | 9.6 | 0.00 | 0.03 | 0.03 | 90 | 998.8 |
| 20260507011033 | 59 | 162 | 3.5 | 11.3 | 0.00 | 0.03 | 0.03 | 92 | 998.5 |
| 20260507010532 | 59 | 155 | 3.5 | 11.3 | 0.00 | 0.03 | 0.03 | 92 | 997.9 |
| 20260507010029 | 59 | 196 | 5.2 | 12.2 | 0.00 | 0.03 | 0.03 | 93 | 997.7 |
| 20260507005527 | 58 | 190 | 5.2 | 13.9 | 0.01 | 0.03 | 0.03 | 93 | 998.0 |
| 20260507005026 | 58 | 198 | 5.2 | 16.5 | 0.01 | 0.03 | 0.03 | 94 | 998.8 |
| 20260507004022 | 58 | 193 | 6.1 | 15.6 | 0.02 | 0.03 | 0.03 | 96 | 1000.0 |
| 20260507003520 | 58 | 211 | 7.8 | 20.0 | 0.02 | 0.03 | 0.03 | 96 | 1000.1 |
| 20260507003019 | 58 | 203 | 7.8 | 20.0 | 0.03 | 0.03 | 0.03 | 97 | 1000.3 |
| 20260507002517 | 58 | 209 | 7.8 | 18.2 | 0.03 | 0.03 | 0.03 | 97 | 1000.6 |
| 20260507002035 | 58 | 200 | 8.7 | 19.1 | 0.03 | 0.03 | 0.03 | 98 | 1001.3 |
| 20260507001533 | 57 | 202 | 7.8 | 15.6 | 0.03 | 0.03 | 0.03 | 98 | 1001.3 |
| 20260507001031 | 57 | 194 | 7.8 | 15.6 | 0.03 | 0.03 | 0.03 | 98 | 1001.3 |
| 20260507000529 | 58 | 212 | 10.4 | 23.5 | 0.02 | 0.03 | 0.03 | 98 | 1001.8 |
| 20260507000028 | 58 | 209 | 12.2 | 26.1 | 0.02 | 0.03 | 0.03 | 97 | 1002.8 |
| 20260506235526 | 58 | 217 | 12.2 | 28.7 | 0.02 | 0.02 | 0.02 | 97 | 1003.2 |
| 20260506235024 | 59 | 231 | 13.0 | 27.8 | 0.02 | 0.02 | 0.02 | 97 | 1003.0 |
| 20260506234522 | 59 | 223 | 11.3 | 23.5 | 0.01 | 0.02 | 0.02 | 98 | 1001.8 |
| 20260506234021 | 60 | 235 | 11.3 | 21.7 | 0.01 | 0.02 | 0.02 | 99 | 1001.9 |
| 20260506233519 | 60 | 239 | 6.1 | 15.6 | 0.01 | 0.01 | 0.01 | 98 | 1001.1 |
| 20260506233017 | 61 | 242 | 4.3 | 12.2 | 0.00 | 0.00 | 0.00 | 98 | 1000.4 |
| 20260506232535 | 61 | 239 | 6.1 | 11.3 | 0.00 | 0.00 | 0.00 | 98 | 1000.0 |
| 20260506232033 | 61 | 234 | 3.5 | 8.7 | 0.00 | 0.00 | 0.00 | 98 | 1000.0 |
| 20260506231532 | 61 | 214 | 3.5 | 9.6 | 0.00 | 0.00 | 0.00 | 98 | 999.9 |
| 20260506231030 | 61 | 208 | 1.7 | 7.8 | 0.00 | 0.00 | 0.00 | 98 | 999.6 |
| 20260506230527 | 61 | 87 | 3.5 | 9.6 | 0.00 | 0.00 | 0.00 | 98 | 999.1 |
| 20260506230027 | 62 | 98 | 3.5 | 7.8 | 0.00 | 0.00 | 0.00 | 98 | 998.8 |
| 20260506225524 | 62 | 93 | 4.3 | 7.8 | 0.00 | 0.00 | 0.00 | 98 | 998.3 |
| 20260506225022 | 62 | 86 | 0.9 | 3.5 | 0.00 | 0.00 | 0.00 | 98 | 998.3 |
| 20260506224521 | 62 | 132 | 0.9 | 2.6 | 0.00 | 0.00 | 0.00 | 98 | 998.5 |
| 20260506224018 | 62 | 182 | 1.7 | 5.2 | 0.00 | 0.00 | 0.00 | 97 | 998.5 |
| 20260506223535 | 62 | 189 | 2.6 | 7.8 | 0.00 | 0.00 | 0.00 | 97 | 998.8 |
| 20260506223034 | 63 | 225 | 3.5 | 7.0 | 0.00 | 0.00 | 0.00 | 96 | 999.1 |
| 20260506222531 | 65 | 243 | 4.3 | 9.6 | 0.00 | 0.00 | 0.00 | 97 | 999.2 |
| 20260506222029 | 65 | 205 | 2.6 | 5.2 | 0.00 | 0.00 | 0.00 | 98 | 999.5 |
| 20260506221527 | 66 | 219 | 3.5 | 8.7 | 0.00 | 0.00 | 0.00 | 99 | 999.9 |
| 20260506221025 | 67 | 221 | 0.9 | 7.8 | 0.00 | 0.00 | 0.00 | 99 | 1000.0 |
| 20260506220523 | 67 | 0.0 | 0.0 | 0.00 | 0.00 | 0.00 | 99 | 999.7 | |
| 20260506220021 | 67 | 0.0 | 0.0 | 0.00 | 0.00 | 0.00 | 99 | 999.7 | |
| 20260506215518 | 67 | 247 | 0.0 | 2.6 | 0.00 | 0.00 | 0.00 | 99 | 1000.2 |
| 20260506215016 | 67 | 255 | 1.7 | 7.0 | 0.00 | 0.00 | 0.00 | 99 | 1000.3 |
| 20260506214534 | 67 | 250 | 0.9 | 7.0 | 0.00 | 0.00 | 0.00 | 99 | 1000.3 |
| 20260506214032 | 67 | 204 | 3.5 | 7.0 | 0.00 | 0.00 | 0.00 | 99 | 1000.5 |
| 20260506213522 | 67 | 250 | 0.9 | 6.1 | 0.00 | 0.00 | 0.00 | 99 | 1000.1 |
| 20260506213020 | 67 | 0.0 | 0.0 | 0.00 | 0.00 | 0.00 | 99 | 1000.0 | |
| 20260506212518 | 67 | 40 | 0.9 | 3.5 | 0.00 | 0.00 | 0.00 | 99 | 1000.1 |
| 20260506212016 | 67 | 0.0 | 0.0 | 0.00 | 0.00 | 0.00 | 99 | 1000.2 | |
| 20260506211534 | 67 | 0.0 | 0.0 | 0.00 | 0.00 | 0.00 | 99 | 1000.1 | |
| 20260506211033 | 67 | 71 | 1.7 | 6.1 | 0.00 | 0.00 | 0.00 | 99 | 999.9 |
| 20260506210531 | 67 | 84 | 0.9 | 3.5 | 0.00 | 0.00 | 0.00 | 99 | 999.8 |
| 20260506210029 | 67 | 95 | 0.9 | 5.2 | 0.00 | 0.00 | 0.00 | 99 | 999.9 |
| 20260506205528 | 67 | 65 | 1.7 | 3.5 | 0.00 | 0.00 | 0.00 | 99 | 999.9 |
| 20260506205025 | 67 | 73 | 0.0 | 1.7 | 0.00 | 0.00 | 0.00 | 99 | 1000.0 |
| 20260506204524 | 67 | 53 | 0.9 | 3.5 | 0.00 | 0.00 | 0.00 | 99 | 1000.0 |
| 20260506204022 | 67 | 49 | 1.7 | 5.2 | 0.00 | 0.00 | 0.00 | 99 | 1000.1 |
| 20260506203520 | 67 | 54 | 2.6 | 6.1 | 0.00 | 0.00 | 0.00 | 99 | 1000.1 |
| 20260506203018 | 67 | 58 | 2.6 | 6.1 | 0.00 | 0.00 | 0.00 | 99 | 1000.0 |
| 20260506202516 | 67 | 58 | 0.9 | 3.5 | 0.00 | 0.00 | 0.00 | 99 | 1000.5 |
| 20260506202035 | 67 | 78 | 0.0 | 0.9 | 0.00 | 0.00 | 0.00 | 99 | 1000.8 |